Time,TemperatureF,DewpointF,PressureIn,WindDirection,WindDirectionDegrees,WindSpeedMPH,WindSpeedGustMPH,Humidity,HourlyPrecipIn,Conditions,Clouds,dailyrainin,SoftwareType,DateUTC
2013-10-22 00:12:00,45.0,29.0,30.18,ESE,110,1.0,7.0,53,0.00,,,0.00,,2013-10-22 06:12:00,
2013-10-22 00:53:00,44.0,29.0,30.18,NE,39,2.0,3.0,55,0.00,,,0.00,,2013-10-22 06:53:00,
2013-10-22 01:12:00,44.0,29.0,30.18,NE,42,3.0,5.0,56,0.00,,,0.00,,2013-10-22 07:12:00,
2013-10-22 01:22:00,43.0,28.0,30.18,NE,41,0.0,3.0,56,0.00,,,0.00,,2013-10-22 07:22:00,
2013-10-22 02:12:00,44.0,29.0,30.19,ENE,67,1.0,5.0,56,0.00,,,0.00,,2013-10-22 08:12:00,
2013-10-22 02:41:00,43.0,29.0,30.18,ENE,60,3.0,7.0,58,0.00,,,0.00,,2013-10-22 08:41:00,
2013-10-22 02:52:00,42.0,29.0,30.19,ENE,65,2.0,8.0,59,0.00,,,0.00,,2013-10-22 08:52:00,
2013-10-22 03:11:00,41.0,29.0,30.19,NE,45,3.0,5.0,61,0.00,,,0.00,,2013-10-22 09:11:00,
2013-10-22 03:21:00,41.0,28.0,30.19,NNE,22,1.0,4.0,60,0.00,,,0.00,,2013-10-22 09:21:00,
2013-10-22 03:53:00,42.0,28.0,30.18,NNE,18,3.0,4.0,58,0.00,,,0.00,,2013-10-22 09:53:00,
2013-10-22 04:43:00,43.0,28.0,30.17,ENE,70,3.0,5.0,55,0.00,,,0.00,,2013-10-22 10:43:00,
2013-10-22 04:53:00,42.0,28.0,30.17,NNE,32,3.0,5.0,57,0.00,,,0.00,,2013-10-22 10:53:00,
2013-10-22 05:52:00,42.0,29.0,30.17,NE,54,4.0,8.0,59,0.00,,,0.00,,2013-10-22 11:52:00,
2013-10-22 06:42:00,42.0,29.0,30.18,NNE,33,5.0,7.0,59,0.00,,,0.00,,2013-10-22 12:42:00,
2013-10-22 06:52:00,42.0,29.0,30.18,NE,46,3.0,7.0,59,0.00,,,0.00,,2013-10-22 12:52:00,
2013-10-22 07:11:00,42.0,28.0,30.18,NE,42,3.0,6.0,57,0.00,,,0.00,,2013-10-22 13:11:00,
2013-10-22 10:53:00,50.0,29.0,30.21,ESE,105,2.0,9.0,44,0.00,,,0.00,,2013-10-22 16:53:00,
2013-10-22 11:43:00,53.0,30.0,30.20,ESE,103,4.0,10.0,41,0.00,,,0.00,,2013-10-22 17:43:00,
2013-10-22 11:52:00,53.0,29.0,30.20,ESE,119,6.0,11.0,40,0.00,,,0.00,,2013-10-22 17:52:00,
2013-10-22 12:22:00,55.0,29.0,30.19,SE,141,7.0,9.0,37,0.00,,,0.00,,2013-10-22 18:22:00,
2013-10-22 12:42:00,55.0,29.0,30.19,SE,144,6.0,10.0,37,0.00,,,0.00,,2013-10-22 18:42:00,
2013-10-22 12:52:00,55.0,28.0,30.19,ESE,103,6.0,10.0,35,0.00,,,0.00,,2013-10-22 18:52:00,
2013-10-22 13:12:00,57.0,28.0,30.19,SSE,150,5.0,9.0,33,0.00,,,0.00,,2013-10-22 19:12:00,
2013-10-22 13:22:00,57.0,28.0,30.19,SSE,148,6.0,8.0,33,0.00,,,0.00,,2013-10-22 19:22:00,
2013-10-22 13:42:00,56.0,28.0,30.18,SSW,205,4.0,10.0,34,0.00,,,0.00,,2013-10-22 19:42:00,
2013-10-22 13:52:00,58.0,28.0,30.17,South,188,2.0,7.0,32,0.00,,,0.00,,2013-10-22 19:52:00,
2013-10-22 14:22:00,58.0,28.0,30.16,SSW,212,2.0,7.0,31,0.00,,,0.00,,2013-10-22 20:22:00,
2013-10-22 14:42:00,60.0,28.0,30.16,SE,140,5.0,9.0,29,0.00,,,0.00,,2013-10-22 20:42:00,
2013-10-22 14:52:00,59.0,29.0,30.15,SW,223,5.0,8.0,32,0.00,,,0.00,,2013-10-22 20:52:00,
2013-10-22 15:22:00,60.0,28.0,30.14,SW,229,4.0,8.0,30,0.00,,,0.00,,2013-10-22 21:22:00,
2013-10-22 15:44:00,60.0,28.0,30.14,SW,229,2.0,7.0,30,0.00,,,0.00,,2013-10-22 21:44:00,
2013-10-22 15:54:00,61.0,28.0,30.14,SW,218,5.0,8.0,28,0.00,,,0.00,,2013-10-22 21:54:00,
2013-10-22 16:23:00,61.0,29.0,30.14,SSW,192,5.0,7.0,29,0.00,,,0.00,,2013-10-22 22:23:00,
2013-10-22 16:43:00,60.0,30.0,30.14,SW,230,4.0,11.0,32,0.00,,,0.00,,2013-10-22 22:43:00,
2013-10-22 16:54:00,60.0,30.0,30.14,SW,222,5.0,10.0,32,0.00,,,0.00,,2013-10-22 22:54:00,
2013-10-22 17:23:00,59.0,30.0,30.13,SW,231,4.0,8.0,33,0.00,,,0.00,,2013-10-22 23:23:00,
2013-10-22 17:42:00,59.0,30.0,30.13,SW,224,4.0,7.0,33,0.00,,,0.00,,2013-10-22 23:42:00,
2013-10-22 17:53:00,59.0,30.0,30.13,WSW,238,4.0,6.0,33,0.00,,,0.00,,2013-10-22 23:53:00,
2013-10-22 18:11:00,58.0,31.0,30.12,SW,235,3.0,6.0,35,0.00,,,0.00,,2013-10-23 00:11:00,
2013-10-22 18:22:00,57.0,30.0,30.12,SW,235,1.0,3.0,35,0.00,,,0.00,,2013-10-23 00:22:00,
2013-10-22 18:42:00,57.0,30.0,30.12,SW,235,1.0,3.0,36,0.00,,,0.00,,2013-10-23 00:42:00,
2013-10-22 18:52:00,56.0,29.0,30.12,SW,235,0.0,2.0,36,0.00,,,0.00,,2013-10-23 00:52:00,
2013-10-22 19:11:00,55.0,30.0,30.11,SW,235,0.0,0.0,38,0.00,,,0.00,,2013-10-23 01:11:00,
2013-10-22 19:23:00,54.0,30.0,30.11,SW,235,0.0,0.0,40,0.00,,,0.00,,2013-10-23 01:23:00,
2013-10-22 19:42:00,54.0,30.0,30.11,SSW,207,2.0,3.0,40,0.00,,,0.00,,2013-10-23 01:42:00,
2013-10-22 19:52:00,52.0,28.0,30.11,ESE,119,4.0,5.0,40,0.00,,,0.00,,2013-10-23 01:52:00,
2013-10-22 20:21:00,53.0,29.0,30.11,SSE,160,1.0,4.0,39,0.00,,,0.00,,2013-10-23 02:21:00,
2013-10-22 20:42:00,52.0,30.0,30.12,SE,130,3.0,5.0,42,0.00,,,0.00,,2013-10-23 02:42:00,
2013-10-22 20:53:00,51.0,29.0,30.12,SE,125,1.0,3.0,43,0.00,,,0.00,,2013-10-23 02:53:00,
2013-10-22 21:22:00,49.0,30.0,30.12,ESE,113,1.0,4.0,47,0.00,,,0.00,,2013-10-23 03:22:00,
2013-10-22 21:55:00,51.0,30.0,30.12,ESE,117,11.0,17.0,44,0.00,,,0.00,,2013-10-23 03:55:00,
2013-10-22 22:14:00,51.0,30.0,30.12,ESE,108,11.0,16.0,45,0.00,,,0.00,,2013-10-23 04:14:00,
2013-10-22 22:24:00,50.0,30.0,30.12,ESE,103,9.0,14.0,46,0.00,,,0.00,,2013-10-23 04:24:00,
2013-10-22 22:44:00,49.0,29.0,30.13,East,94,8.0,14.0,46,0.00,,,0.00,,2013-10-23 04:44:00,
2013-10-22 22:54:00,49.0,30.0,30.13,East,94,7.0,10.0,47,0.00,,,0.00,,2013-10-23 04:54:00,
2013-10-22 23:13:00,49.0,29.0,30.13,ESE,105,9.0,14.0,46,0.00,,,0.00,,2013-10-23 05:13:00,
2013-10-22 23:52:00,47.0,29.0,30.13,NE,50,2.0,4.0,49,0.00,,,0.00,,2013-10-23 05:52:00,